Date,TemperatureHighF,TemperatureAvgF,TemperatureLowF,DewpointHighF,DewpointAvgF,DewpointLowF,HumidityHigh,HumidityAvg,HumidityLow,PressureMaxIn,PressureMinIn,WindSpeedMaxMPH,WindSpeedAvgMPH,GustSpeedMaxMPH,PrecipitationSumIn
2013-2-1,32.1,29.8,25.1,17.3,11.3,5.3,56,46,36,30.17,29.73,16,9,29,0.00
2013-2-2,31.4,26.7,21.5,23.4,15.0,8.5,89,61,49,30.29,30.06,12,7,24,0.00
2013-2-3,27.4,24.5,22.8,22.7,21.8,20.6,92,89,81,30.06,29.93,5,2,11,0.00
2013-2-4,31.9,28.7,25.3,15.4,12.1,9.1,65,50,40,29.97,29.86,13,8,25,0.00
2013-2-5,31.7,29.6,27.2,29.6,25.6,13.8,92,86,55,29.97,29.88,8,3,17,0.00
2013-2-6,40.9,33.7,29.0,30.1,24.0,8.3,94,70,40,30.33,29.89,12,5,24,0.04
2013-2-7,29.7,27.0,25.1,12.7,7.9,1.8,55,44,32,30.48,30.33,6,4,13,0.00
2013-2-10,26.1,26.1,26.1,12.9,12.9,11.6,57,57,57,30.44,30.44,5,3,10,0.00
2013-2-11,47.2,42.7,39.7,46.4,41.7,37.3,98,96,91,30.16,29.64,16,5,29,0.58
2013-2-12,44.9,39.1,34.6,41.6,32.2,26.3,98,78,52,29.93,29.67,11,5,27,0.00
2013-2-13,41.1,34.9,29.2,30.3,27.0,23.9,90,73,55,29.93,29.65,5,2,14,0.00
2013-2-14,43.9,36.4,29.6,36.6,30.8,24.0,95,81,47,30.00,29.68,8,3,14,0.08
2013-2-15,46.3,41.4,37.6,41.4,38.9,36.0,96,91,81,30.03,29.92,10,4,19,0.01
2013-2-16,41.9,36.0,30.0,40.6,31.2,26.3,95,83,68,29.92,29.65,10,6,20,0.00
2013-2-17,32.3,26.4,18.0,26.9,11.5,3.4,92,55,30,29.85,29.53,19,12,41,0.00
2013-2-18,33.0,25.8,18.1,21.6,9.9,4.6,66,51,38,30.21,29.86,15,8,31,0.00
2013-2-19,47.3,41.0,31.5,44.4,36.2,20.5,100,83,61,30.21,29.63,12,6,21,0.33
2013-2-20,41.2,32.4,26.0,39.0,18.3,11.5,93,57,42,29.92,29.64,15,10,30,0.00
2013-2-21,35.7,28.7,23.6,18.6,15.5,13.1,70,58,46,30.23,29.89,14,9,32,0.00
2013-2-22,41.7,33.6,26.1,31.4,25.1,18.4,79,71,56,30.37,30.21,10,5,21,0.00
2013-2-23,41.6,39.1,37.3,40.5,36.4,31.3,98,90,78,30.28,29.76,12,8,22,0.19
2013-2-24,42.5,38.4,33.5,38.8,35.5,29.5,96,90,79,29.90,29.68,11,7,21,0.03
2013-2-25,45.6,38.0,31.2,35.1,30.4,26.0,85,74,54,30.22,29.90,8,4,16,0.00
2013-2-26,44.5,39.5,36.7,37.0,34.5,31.9,93,82,71,30.30,29.95,14,6,27,0.16
2013-2-27,46.9,43.3,38.9,45.8,41.8,36.1,96,94,85,29.94,29.50,21,11,42,0.90
2013-2-28,46.2,41.7,38.2,42.3,39.5,35.4,100,92,84,29.61,29.52,8,2,17,0.10